Weather History for Inverness, FL

Change the Weather History Date:

Wednesday, January 23, 2013

  Actual Average (KOCF) Record (KOCF)
Temperature  
Mean Temperature 50 °F -  
Max Temperature 66 °F 66 °F 82 °F (1999)
Min Temperature 33 °F 41 °F 26 °F (2009)
Degree Days  
Heating Degree Days 16    
Moisture  
Dew Point 34 °F    
Average Humidity 62    
Maximum Humidity 100    
Minimum Humidity 26    
Precipitation  
Precipitation 0.00 in - - ()
Sea Level Pressure  
Sea Level Pressure 30.34 in    
Wind  
Wind Speed 1 mph (NNE)    
Max Wind Speed 9 mph    
Max Gust Speed -    
Visibility 9 miles    
Events      
Averages and records for this station are not official NWS values.
T = Trace of Precipitation, MM = Missing Value Source: NWS Daily Summary

Daily Weather History Graph

Daily Weather History Graph

Search for Another Location

Airport:

Trip Planner

Search our weather history database for the weather conditions in past years. The results will help you decide how hot, cold, wet, or windy it might be!

Date:

Astronomy

Jan. 23, 2013 Rise Set
Actual Time 7:21 AM EST 6:01 PM EST
Civil Twilight 6:56 AM EST 6:26 PM EST
Nautical Twilight 6:27 AM EST 6:54 PM EST
Astronomical Twilight 5:59 AM EST 7:23 PM EST
Moon 3:14 PM EST (1/23) 4:28 AM EST (1/23)
Length of Visible Light 11h 29m
Length of Day
10h 39m
Waxing Gibbous, 89% of the Moon is Illuminated
Jan 23
Waxing Gibbous
Jan 26
Full
Feb 3
Last Quarter
Feb 10
New
Feb 17
First Quarter

Hourly Weather History & Observations

Time (EST) Temp. Windchill Dew Point Humidity Pressure Visibility Wind Dir Wind Speed Gust Speed Precip Events Conditions
12:15 AM 42.8 °F - 37.4 °F 81% 30.32 in 10.0 mi Calm Calm - N/A   Clear
12:35 AM 42.8 °F - 37.4 °F 81% 30.32 in 10.0 mi Calm Calm - N/A   Clear
1:15 AM 41.0 °F - 35.6 °F 81% 30.32 in 10.0 mi Calm Calm - N/A   Clear
1:35 AM 41.0 °F - 35.6 °F 81% 30.32 in 10.0 mi Calm Calm - N/A   Clear
1:55 AM 41.0 °F - 35.6 °F 81% 30.32 in 10.0 mi Calm Calm - N/A   Clear
2:15 AM 39.2 °F - 35.6 °F 87% 30.32 in 10.0 mi Calm Calm - N/A   Clear
2:35 AM 39.2 °F - 35.6 °F 87% 30.32 in 10.0 mi Calm Calm - N/A   Clear
2:55 AM 37.4 °F - 35.6 °F 93% 30.32 in 10.0 mi Calm Calm - N/A   Clear
3:15 AM 39.2 °F - 35.6 °F 87% 30.32 in 10.0 mi Calm Calm - N/A   Clear
3:35 AM 41.0 °F 39.0 °F 35.6 °F 81% 30.33 in 10.0 mi North 3.5 mph - N/A   Clear
3:55 AM 41.0 °F - 35.6 °F 81% 30.34 in 10.0 mi Calm Calm - N/A   Clear
4:15 AM 41.0 °F - 35.6 °F 81% 30.34 in 10.0 mi Calm Calm - N/A   Clear
4:35 AM 41.0 °F 39.0 °F 33.8 °F 76% 30.34 in 10.0 mi North 3.5 mph - N/A   Clear
4:55 AM 37.4 °F - 33.8 °F 87% 30.34 in 10.0 mi Calm Calm - N/A   Clear
5:15 AM 37.4 °F - 33.8 °F 87% 30.34 in 10.0 mi Calm Calm - N/A   Clear
5:35 AM 37.4 °F - 33.8 °F 87% 30.35 in 10.0 mi Calm Calm - N/A   Clear
5:55 AM 35.6 °F - 33.8 °F 93% 30.35 in 10.0 mi Calm Calm - N/A   Clear
6:15 AM 35.6 °F - 33.8 °F 93% 30.36 in 10.0 mi Calm Calm - N/A   Clear
6:35 AM 35.6 °F - 33.8 °F 93% 30.36 in 10.0 mi Calm Calm - N/A   Clear
6:55 AM 33.8 °F - 32.0 °F 93% 30.36 in 10.0 mi Calm Calm - N/A   Clear
7:15 AM 33.8 °F - 33.8 °F 100% 30.37 in 10.0 mi Calm Calm - N/A   Clear
7:35 AM 33.8 °F - 33.8 °F 100% 30.37 in 10.0 mi Calm Calm - N/A   Clear
7:55 AM 33.8 °F - 33.8 °F 100% 30.38 in 10.0 mi Calm Calm - N/A   Clear
8:15 AM 37.4 °F - 35.6 °F 93% 30.38 in 10.0 mi Calm Calm - N/A   Clear
8:55 AM 46.4 °F - 33.8 °F 62% 30.39 in 10.0 mi Calm Calm - N/A   Clear
9:15 AM 50.0 °F - 33.8 °F 54% 30.39 in 10.0 mi Calm Calm - N/A   Clear
9:35 AM 51.8 °F - 32.0 °F 47% 30.40 in 10.0 mi ENE 4.6 mph - N/A   Clear
9:55 AM 55.4 °F - 32.0 °F 41% 30.40 in 10.0 mi NNE 4.6 mph - N/A   Clear
10:15 AM 55.4 °F - 32.0 °F 41% 30.41 in 10.0 mi NNE 5.8 mph - N/A   Clear
10:35 AM 57.2 °F - 30.2 °F 36% 30.41 in 10.0 mi NNE 5.8 mph - N/A   Clear
10:55 AM 59.0 °F - 32.0 °F 36% 30.41 in 10.0 mi NNE 6.9 mph - N/A   Clear
11:15 AM 59.0 °F - 30.2 °F 34% 30.40 in 10.0 mi North 9.2 mph - N/A   Clear
11:35 AM 60.8 °F - 32.0 °F 34% 30.40 in 10.0 mi NNE 9.2 mph - N/A   Clear
11:55 AM 60.8 °F - 32.0 °F 34% 30.39 in 7.0 mi North 6.9 mph - N/A   Clear
12:15 PM 62.6 °F - 30.2 °F 30% 30.38 in 5.0 mi North 6.9 mph - N/A   Haze
12:35 PM 62.6 °F - 30.2 °F 30% 30.37 in 7.0 mi North 4.6 mph - N/A   Clear
12:55 PM 62.6 °F - 30.2 °F 30% 30.36 in 7.0 mi NNE 4.6 mph - N/A   Clear
1:15 PM 64.4 °F - 32.0 °F 30% 30.34 in 7.0 mi North 4.6 mph - N/A   Clear
1:35 PM 62.6 °F - 32.0 °F 32% 30.33 in 5.0 mi North 6.9 mph - N/A   Haze
1:55 PM 64.4 °F - 32.0 °F 30% 30.33 in 4.0 mi NNE 4.6 mph - N/A   Haze
2:15 PM 64.4 °F - 30.2 °F 28% 30.32 in 5.0 mi North 4.6 mph - N/A   Haze
2:35 PM 64.4 °F - 30.2 °F 28% 30.31 in 5.0 mi Calm Calm - N/A   Haze
2:55 PM 64.4 °F - 30.2 °F 28% 30.31 in 5.0 mi Calm Calm - N/A   Haze
3:15 PM 64.4 °F - 30.2 °F 28% 30.31 in 7.0 mi North 4.6 mph - N/A   Clear
3:35 PM 66.2 °F - 30.2 °F 26% 30.31 in 5.0 mi North 4.6 mph - N/A   Haze
3:55 PM 64.4 °F - 30.2 °F 28% 30.31 in 5.0 mi Calm Calm - N/A   Haze
4:15 PM 64.4 °F - 30.2 °F 28% 30.31 in 5.0 mi Calm Calm - N/A   Haze
4:35 PM 64.4 °F - 32.0 °F 30% 30.31 in 7.0 mi NNE 3.5 mph - N/A   Scattered Clouds
4:55 PM 64.4 °F - 32.0 °F 30% 30.32 in 4.0 mi Calm Calm - N/A   Haze
5:15 PM 62.6 °F - 32.0 °F 32% 30.32 in 5.0 mi Calm Calm - N/A   Haze
5:35 PM 60.8 °F - 33.8 °F 36% 30.32 in 4.0 mi Calm Calm - N/A   Haze
5:55 PM 59.0 °F - 35.6 °F 42% 30.32 in 5.0 mi Calm Calm - N/A   Haze
6:15 PM 55.4 °F - 35.6 °F 47% 30.32 in 7.0 mi Calm Calm - N/A   Clear
6:35 PM 53.6 °F - 37.4 °F 54% 30.32 in 10.0 mi Calm Calm - N/A   Clear
6:55 PM 51.8 °F - 37.4 °F 58% 30.33 in 10.0 mi Calm Calm - N/A   Clear
7:15 PM 50.0 °F - 35.6 °F 58% 30.34 in 10.0 mi Calm Calm - N/A   Clear
7:35 PM 48.2 °F - 37.4 °F 66% 30.33 in 10.0 mi Calm Calm - N/A   Clear
7:55 PM 46.4 °F - 37.4 °F 71% 30.33 in 10.0 mi Calm Calm - N/A   Clear
8:15 PM 44.6 °F - 35.6 °F 71% 30.33 in 10.0 mi Calm Calm - N/A   Clear
8:35 PM 44.6 °F - 37.4 °F 76% 30.33 in 10.0 mi Calm Calm - N/A   Clear
8:55 PM 44.6 °F - 35.6 °F 71% 30.33 in 10.0 mi Calm Calm - N/A   Clear
9:15 PM 42.8 °F - 35.6 °F 76% 30.33 in 10.0 mi Calm Calm - N/A   Clear
9:35 PM 42.8 °F - 35.6 °F 76% 30.34 in 10.0 mi Calm Calm - N/A   Clear
9:55 PM 42.8 °F - 35.6 °F 76% 30.34 in 10.0 mi Calm Calm - N/A   Clear
10:15 PM 42.8 °F - 37.4 °F 81% 30.34 in 10.0 mi Calm Calm - N/A   Clear
10:35 PM 41.0 °F - 35.6 °F 81% 30.35 in 10.0 mi Calm Calm - N/A   Clear
10:55 PM 41.0 °F - 35.6 °F 81% 30.34 in 10.0 mi Calm Calm - N/A   Clear
11:15 PM 41.0 °F - 35.6 °F 81% 30.34 in 10.0 mi Calm Calm - N/A   Clear
11:35 PM 41.0 °F - 37.4 °F 87% 30.34 in 10.0 mi Calm Calm - N/A   Clear
11:55 PM 39.2 °F - 37.4 °F 93% 30.33 in 10.0 mi Calm Calm - N/A   Clear